Home > Weather > Schwerin > Past weeks

Flag for Germany Weather for the Past 2 Weeks in Schwerin, Mecklenburg-Western Pomerania, Germany

Now
45 °F

Clear.


Feels Like: 38 °F
Forecast: 41 / 45 °F
Wind: 14 mph from Southwest

Location: Luebeck-Blankensee

Current Time: Feb 8, 2016 at 10:42:26 PM

Latest Report: Feb 8, 2016 at 7:50 PM


Visibility: 10 mi

Pressure: 29.15 "Hg

Humidity: 76%

Dew point: 37 °F

Location of SchwerinLocation

Historic Weather in Schwerin — Graph

°F

Schwerin Temperature Yesterday

Maximum temperature yesterday: 54 °F (at 2:20 PM)
Minimum temperature yesterday: 41 °F (at 7:50 AM)
Average temperature yesterday: 48 °F

High & Low Weather Summary for the Past Weeks

 TemperatureHumidityPressure
High54 °F (Feb 7, 2:20 PM)100% (Jan 25, 6:50 AM)30.24 "Hg (Jan 25, 6:50 AM)
Low34 °F (Feb 5, 6:50 AM)54% (Feb 2, 3:20 PM)29.12 "Hg (Feb 8, 1:50 PM)
Average45 °F83%29.80 "Hg
* Reported Jan 25 6:50 AM — Feb 8 7:50 PM, Schwerin, Weather by CustomWeather, © 2016

Note: Actual official high and low records may vary slightly from our data, if they occured in-between our weather recording intervals... More about our weather records

Advertising

Schwerin Weather History for the Previous 24 Hours

 ConditionsComfort  
Time TempWeatherWind HumidityBarometerVisibility
7:50 PM
Mon, Feb 8
45 °FClear.14 mph76%29.15 "Hg10 mi
7:20 PM45 °FClear.14 mph76%29.15 "Hg10 mi
6:50 PM45 °FPassing clouds.13 mph76%29.15 "HgN/A
6:20 PM45 °FPassing clouds.14 mph76%29.15 "HgN/A
5:50 PM43 °FScattered showers. Passing clouds.10 mph81%29.15 "HgN/A
5:20 PM46 °FScattered showers. Partly cloudy.16 mph71%29.12 "HgN/A
4:50 PM46 °FScattered clouds.10 mph82%29.12 "HgN/A
4:20 PM46 °FScattered clouds.13 mph82%29.12 "HgN/A
3:50 PM46 °FScattered clouds.15 mph82%29.12 "HgN/A
3:20 PM46 °FScattered showers. Scattered clouds.14 mph76%29.12 "HgN/A
2:50 PM48 °FSprinkles. Scattered clouds.N/A66%29.12 "HgN/A
2:20 PM50 °FScattered clouds.18 mph71%29.12 "HgN/A
1:50 PM50 °FScattered clouds.17 mph71%29.12 "HgN/A
1:20 PM48 °FDrizzle. Partly sunny.20 mph76%29.15 "HgN/A
12:50 PM48 °FPartly sunny.21 mph76%29.15 "HgN/A
12:20 PM48 °FPartly sunny.18 mph76%29.15 "HgN/A
11:50 AM48 °FPartly sunny.21 mph76%29.18 "HgN/A
11:20 AM46 °FPartly sunny.18 mph82%29.18 "HgN/A
10:50 AM46 °FPartly sunny.15 mph76%29.18 "HgN/A
10:20 AM45 °FPartly sunny.15 mph81%29.18 "HgN/A
9:50 AM45 °FLight rain. Partly sunny.16 mph81%29.21 "HgN/A
9:20 AM45 °FLight rain. Partly sunny.16 mph81%29.21 "HgN/A
8:50 AM46 °FDrizzle. Partly sunny.15 mph71%29.24 "HgN/A
8:20 AM46 °FPartly sunny.15 mph71%29.24 "HgN/A
7:50 AM45 °FPassing clouds.14 mph76%29.24 "HgN/A
7:20 AM45 °FLight rain. Passing clouds.14 mph76%29.27 "HgN/A
6:50 AM45 °FLight rain. Passing clouds.13 mph71%29.30 "HgN/A
6:20 AM45 °FPassing clouds.15 mph66%29.30 "HgN/A
Weather by CustomWeather, © 2016

See weather overviewHow to use our weather pages